Weather History for KSNT - May, 2012

Change the Weather History Date:

Wednesday, May 2, 2012

  Actual Average Record
Temperature  
Mean Temperature 36 °F 39 °F  
Max Temperature 46 °F 53 °F 77 °F (1985)
Min Temperature 26 °F 24 °F 9 °F (2008)
Degree Days  
Heating Degree Days 29 26  
Month to date heating degree days 55 53  
Since 1 July heating degree days 9603 9713  
Cooling Degree Days 0 0  
Month to date cooling degree days 0 0  
Year to date cooling degree days 0 0  
Moisture  
Dew Point 17 °F    
Average Humidity 57    
Maximum Humidity 92    
Minimum Humidity 22    
Precipitation  
Precipitation 0.01 in 0.05 in 0.37 in (2007)
Month to date precipitation 0.01 0.10  
Year to date precipitation 11.78 6.94  
Sea Level Pressure  
Sea Level Pressure 29.76 in    
Wind  
Wind Speed 4 mph (SW)    
Max Wind Speed 15 mph    
Max Gust Speed 26 mph    
T = Trace of Precipitation, MM = Missing Value Source: NWS Daily Summary

Daily Weather History Graph

Daily Weather History Graph

Search for Another Location

Airport or City:

Trip Planner

Search our weather history database for the weather conditions in past years. The results will help you decide how hot, cold, wet, or windy it might be!

Date:

Astronomy

May. 02, 2012 Rise Set
Actual Time 6:28 AM MDT 8:45 PM MDT
Civil Twilight 5:56 AM MDT 9:17 PM MDT
Nautical Twilight 5:17 AM MDT 9:57 PM MDT
Astronomical Twilight 4:33 AM MDT 10:41 PM MDT
Moon 4:55 PM MDT (5/2) 4:09 AM MDT (5/2)
Length of Visible Light 15h 20m
Length of Day
14h 16m
Waxing Gibbous, 84% of the Moon is Illuminated
May 2
Waxing Gibbous
May 5
Full
May 12
Last Quarter
May 20
New
May 28
First Quarter

Hourly Weather History & Observations

Time (MDT) Temp. Windchill Dew Point Humidity Pressure Visibility Wind Dir Wind Speed Gust Speed Precip Events Conditions
12:51 AM 32.0 °F - 25.0 °F 75% 29.64 in - Calm Calm - N/A   Unknown
1:51 AM 33.1 °F - 23.0 °F 66% 29.66 in - Calm Calm - N/A   Unknown
2:51 AM 32.0 °F - 24.1 °F 73% 29.65 in - Calm Calm - N/A   Unknown
3:51 AM 30.9 °F - 27.0 °F 85% 29.67 in - Calm Calm - N/A   Unknown
4:51 AM 30.9 °F 26.2 °F 28.0 °F 89% 29.67 in - NNW 4.6 mph - N/A   Unknown
5:51 AM 30.0 °F 26.5 °F 27.0 °F 88% 29.70 in - Variable 3.5 mph - 0.01 in   Unknown
6:51 AM 28.9 °F - 23.0 °F 78% 29.70 in - Calm Calm - N/A   Unknown
7:51 AM 33.1 °F 27.7 °F 21.9 °F 64% 29.72 in - ENE 5.8 mph - N/A   Unknown
8:51 AM 35.1 °F - 16.0 °F 46% 29.76 in - Calm Calm - N/A   Unknown
9:51 AM 36.0 °F 29.6 °F 12.0 °F 37% 29.78 in - SW 8.1 mph - N/A   Unknown
10:51 AM 39.0 °F 32.8 °F 15.1 °F 38% 29.79 in - SSW 9.2 mph - N/A   Unknown
11:51 AM 39.9 °F 35.1 °F 15.1 °F 36% 29.79 in - Variable 6.9 mph - N/A   Unknown
12:51 PM 39.9 °F 32.9 °F 12.9 °F 33% 29.80 in - SW 11.5 mph 20.7 mph N/A   Unknown
1:51 PM 42.1 °F 37.1 °F 12.9 °F 31% 29.78 in - SSW 8.1 mph - N/A   Unknown
2:51 PM 44.1 °F 39.5 °F 12.0 °F 27% 29.78 in - West 8.1 mph - N/A   Unknown
3:51 PM 44.1 °F 39.5 °F 9.0 °F 24% 29.79 in - West 8.1 mph - N/A   Unknown
4:51 PM 44.1 °F - 9.0 °F 24% 29.79 in - Calm Calm - N/A   Unknown
5:51 PM 44.1 °F 41.5 °F 10.0 °F 25% 29.80 in - Variable 4.6 mph - N/A   Unknown
6:51 PM 43.0 °F 40.3 °F 10.9 °F 27% 29.81 in - Variable 4.6 mph - N/A   Unknown
7:51 PM 42.1 °F 38.4 °F 7.0 °F 24% 29.81 in - South 5.8 mph - N/A   Unknown
8:51 PM 35.1 °F 30.1 °F 14.0 °F 42% 29.83 in - South 5.8 mph - N/A   Unknown
9:51 PM 33.1 °F 30.0 °F 15.1 °F 48% 29.84 in - Variable 3.5 mph - N/A   Unknown
10:51 PM 33.1 °F - 16.0 °F 50% 29.84 in - Calm Calm - N/A   Unknown
11:51 PM 37.0 °F 34.5 °F 15.1 °F 41% 29.80 in - Variable 3.5 mph - N/A   Unknown